Home   Weather   Saint-Pierre   Past weeks

Flag for Réunion (French) Past Weather in Saint-Pierre, Réunion (French) — Yesterday and Last 2 Weeks

Now
84 °F

Sunny.


Feels Like: 87 °F
Forecast: 72 / 80 °F
Wind: 10 mph from West

Location: Saint Airport-Pierre

Current Time: Dec 11, 2016 at 5:58:55 pm

Latest Report: Dec 11, 2016 at 5:00 pm


Visibility: 10 mi

Pressure: 29.98 "Hg

Humidity: 55%

Dew Point: 66 °F

Location of Saint-PierreLocation

Past Weather in Saint-Pierre — Graph

°F

Saint-Pierre Temperature Yesterday

Maximum temperature yesterday: 86 °F (at 2:00 pm)
Minimum temperature yesterday: 73 °F (at 5:30 am)
Average temperature yesterday: 80 °F

High & Low Weather Summary for the Past Weeks

 TemperatureHumidityPressure
High86 °F (Dec 3, 11:30 am)89% (Nov 30, 4:30 pm)30.09 "Hg (Nov 30, 4:30 pm)
Low70 °F (Dec 5, 3:00 am)44% (Dec 6, 7:00 am)29.86 "Hg (Dec 2, 3:30 pm)
Average78 °F68%29.99 "Hg
* Reported Nov 26 4:00 pm — Dec 11 4:30 pm, Saint-Pierre, Weather by CustomWeather, © 2016

Note: Actual official high and low records may vary slightly from our data, if they occured in-between our weather recording intervals... More about our weather records

Advertising

Saint-Pierre Weather History for the Previous 24 Hours

Scroll right to see more
 ConditionsComfort  
Time TempWeatherWind HumidityBarometerVisibility
4:30 pm
Sun, Dec 11
84 °FPassing clouds.10 mph58%29.98 "HgN/A
4:00 pm84 °FPassing clouds.12 mph58%29.98 "HgN/A
3:30 pm84 °FPassing clouds.10 mph58%29.98 "HgN/A
3:00 pm86 °FBroken clouds.12 mph55%29.98 "HgN/A
2:30 pm82 °FPartly sunny.13 mph62%30.01 "HgN/A
2:00 pm84 °FScattered clouds.13 mph62%30.01 "HgN/A
1:30 pm84 °FPassing clouds.10 mph62%30.01 "HgN/A
1:00 pm86 °FPassing clouds.10 mph59%30.01 "HgN/A
12:30 pm84 °FScattered clouds.9 mph62%30.01 "HgN/A
12:00 pm84 °FPassing clouds.8 mph62%30.01 "HgN/A
11:30 am84 °FPassing clouds.8 mph62%30.04 "HgN/A
11:00 am84 °FPassing clouds.7 mph58%30.04 "HgN/A
10:30 am84 °FPassing clouds.8 mph58%30.04 "HgN/A
10:00 am82 °FSunny.7 mph62%30.04 "Hg10 mi
9:30 am82 °FPassing clouds.7 mph62%30.04 "HgN/A
9:00 am82 °FPassing clouds.5 mph58%30.04 "HgN/A
8:30 am82 °FPassing clouds.5 mph58%30.04 "HgN/A
8:00 am81 °FPassing clouds.5 mph62%30.04 "HgN/A
7:30 am81 °FSunny.No wind62%30.04 "Hg10 mi
7:00 am79 °FSunny.5 mph61%30.04 "Hg10 mi
6:30 am77 °FSunny.6 mph65%30.04 "Hg10 mi
6:00 am73 °FSunny.7 mph74%30.04 "Hg10 mi
5:30 am73 °FSunny.7 mph74%30.04 "Hg10 mi
5:00 am73 °FPassing clouds.8 mph74%30.04 "HgN/A
4:30 am75 °FPassing clouds.7 mph69%30.04 "HgN/A
4:00 am75 °FPassing clouds.7 mph74%30.01 "HgN/A
3:30 am75 °FPassing clouds.6 mph74%30.04 "HgN/A
3:00 am75 °FClear.6 mph74%30.04 "Hg10 mi
2:30 am75 °FPassing clouds.6 mph78%30.04 "HgN/A
2:00 am75 °FClear.6 mph78%30.04 "Hg10 mi
1:30 am75 °FPassing clouds.6 mph78%30.04 "HgN/A
1:00 am77 °FMostly cloudy.6 mph79%30.04 "HgN/A
12:30 am77 °FOvercast.5 mph74%30.07 "HgN/A
12:00 am79 °FPassing clouds.No wind70%30.07 "HgN/A
11:30 pm
Sat, Dec 10
79 °FPassing clouds.3 mph74%30.07 "HgN/A
11:00 pm79 °FWarm.7 mph74%30.07 "HgN/A
10:30 pm79 °FPassing clouds.6 mph74%30.07 "HgN/A
10:00 pm79 °FPassing clouds.7 mph74%30.07 "HgN/A
9:30 pm79 °FPassing clouds.7 mph74%30.07 "HgN/A
9:00 pm79 °FClear.8 mph74%30.04 "Hg10 mi
8:30 pm79 °FPassing clouds.7 mph74%30.04 "HgN/A
8:00 pm79 °FPassing clouds.8 mph74%30.04 "HgN/A
7:30 pm81 °FPassing clouds.10 mph70%30.04 "HgN/A
7:00 pm81 °FPartly cloudy.10 mph70%30.01 "HgN/A
6:30 pm81 °FPartly sunny.9 mph70%30.01 "HgN/A
6:00 pm82 °FPartly sunny.9 mph66%30.01 "HgN/A
5:30 pm82 °FScattered clouds.10 mph62%30.01 "HgN/A
5:00 pm84 °FPassing clouds.10 mph58%29.98 "HgN/A
Weather by CustomWeather, © 2016

See weather overviewHow to use our weather pages